When you browse on this site, cookies collect data to enhance your experience and personalize the content and advertising you see.
Visit our Privacy Policy to learn more. By continuing to use the site, you agree to this use of cookies and data.
EN

Hourly Weather Hohen Neuendorf

Today, 12 July, Sunday

Time Temperature Precipitation Wind Pressure Humidity
00:00 +12°C° 0 mm 1 mps 763 mmHg 84%
01:00 +12°C° 0 mm 1 mps 763 mmHg 86%
02:00 +10°C° 0 mm 2 mps 763 mmHg 88%
03:00 +10°C° 0 mm 2 mps 763 mmHg 89%
04:00 +10°C° 0 mm 2 mps 763 mmHg 91%
05:00 +12°C° 0 mm 2 mps 764 mmHg 87%
06:00 +13°C° 0 mm 2 mps 764 mmHg 83%
07:00 +14°C° 0 mm 2 mps 764 mmHg 79%
08:00 +16°C° 0 mm 2 mps 764 mmHg 70%
09:00 +17°C° 0 mm 3 mps 764 mmHg 62%
10:00 +19°C° 0 mm 3 mps 764 mmHg 54%
11:00 +19°C° 0 mm 4 mps 764 mmHg 51%
12:00 +20°C° 0 mm 4 mps 764 mmHg 47%
13:00 +21°C° 0 mm 4 mps 764 mmHg 44%
14:00 +21°C° 0 mm 4 mps 764 mmHg 44%
15:00 +21°C° 0 mm 4 mps 764 mmHg 45%
16:00 +21°C° 0 mm 4 mps 764 mmHg 45%
17:00 +20°C° 0.1 mm 3 mps 764 mmHg 51%
18:00 +19°C° 0.1 mm 3 mps 764 mmHg 57%
19:00 +18°C° 0.1 mm 2 mps 764 mmHg 63%
20:00 +17°C° 0 mm 2 mps 764 mmHg 69%
21:00 +15°C° 0 mm 2 mps 764 mmHg 74%
22:00 +14°C° 0 mm 1 mps 764 mmHg 80%
23:00 +13°C° 0 mm 1 mps 764 mmHg 82%

Tomorrow, 13 July, Monday

Time Temperature Precipitation Wind Pressure Humidity
00:00 +13°C° 0 mm 1 mps 764 mmHg 84%
01:00 +12°C° 0 mm 1 mps 764 mmHg 86%
02:00 +12°C° 0 mm 1 mps 764 mmHg 87%
03:00 +12°C° 0 mm 1 mps 764 mmHg 88%
04:00 +11°C° 0 mm 1 mps 763 mmHg 90%
05:00 +13°C° 0 mm 1 mps 763 mmHg 84%
06:00 +14°C° 0 mm 1 mps 763 mmHg 77%
07:00 +16°C° 0 mm 1 mps 763 mmHg 71%
08:00 +18°C° 0 mm 1 mps 763 mmHg 65%
09:00 +18°C° 0 mm 2 mps 763 mmHg 59%
10:00 +20°C° 0 mm 2 mps 763 mmHg 53%
11:00 +20°C° 0 mm 2 mps 763 mmHg 51%
12:00 +21°C° 0 mm 2 mps 762 mmHg 49%
13:00 +23°C° 0 mm 2 mps 762 mmHg 46%
14:00 +23°C° 0 mm 2 mps 761 mmHg 47%
15:00 +23°C° 0 mm 2 mps 761 mmHg 48%
16:00 +23°C° 0 mm 2 mps 760 mmHg 48%
17:00 +21°C° 0 mm 2 mps 760 mmHg 52%
18:00 +21°C° 0 mm 2 mps 760 mmHg 56%
19:00 +21°C° 0 mm 1 mps 760 mmHg 60%
20:00 +20°C° 0 mm 1 mps 760 mmHg 64%
21:00 +18°C° 0 mm 1 mps 760 mmHg 68%
22:00 +15°C° 0 mm 0 mps 760 mmHg 72%
23:00 +14°C° 0 mm 0 mps 760 mmHg 74%

Day after tomorrow, 14 July, Tuesday

Time Temperature Precipitation Wind Pressure Humidity
00:00 +15°C° 0 mm 1 mps 759 mmHg 76%
01:00 +14°C° 0 mm 1 mps 759 mmHg 78%
02:00 +14°C° 0 mm 1 mps 759 mmHg 79%
03:00 +14°C° 0 mm 1 mps 759 mmHg 79%
04:00 +14°C° 0 mm 1 mps 758 mmHg 80%
05:00 +15°C° 0 mm 1 mps 758 mmHg 75%
06:00 +16°C° 0 mm 1 mps 758 mmHg 70%
07:00 +18°C° 0 mm 2 mps 758 mmHg 64%
08:00 +19°C° 0 mm 2 mps 758 mmHg 59%
09:00 +21°C° 0 mm 2 mps 757 mmHg 54%
10:00 +23°C° 0 mm 2 mps 757 mmHg 49%
11:00 +24°C° 0 mm 2 mps 757 mmHg 46%
12:00 +25°C° 0 mm 2 mps 757 mmHg 44%
13:00 +25°C° 0 mm 2 mps 756 mmHg 42%
14:00 +25°C° 0 mm 2 mps 756 mmHg 42%
15:00 +26°C° 0 mm 2 mps 756 mmHg 42%
16:00 +26°C° 0 mm 2 mps 755 mmHg 42%
17:00 +25°C° 0 mm 2 mps 755 mmHg 47%
18:00 +24°C° 0 mm 1 mps 755 mmHg 52%
19:00 +23°C° 0 mm 1 mps 755 mmHg 56%
20:00 +22°C° 0.2 mm 1 mps 755 mmHg 62%
21:00 +20°C° 0.2 mm 1 mps 755 mmHg 68%
22:00 +19°C° 0.2 mm 1 mps 754 mmHg 73%
23:00 +19°C° 0.1 mm 1 mps 754 mmHg 76%

15 July, Wednesday

Time Temperature Precipitation Wind Pressure Humidity
00:00 +18°C° 0.1 mm 1 mps 754 mmHg 78%
01:00 +18°C° 0.1 mm 1 mps 754 mmHg 80%
02:00 +16°C° 0 mm 1 mps 754 mmHg 82%
03:00 +16°C° 0 mm 2 mps 754 mmHg 84%
04:00 +15°C° 0 mm 2 mps 753 mmHg 86%
05:00 +15°C° 0.8 mm 1 mps 753 mmHg 89%
06:00 +16°C° 0.8 mm 1 mps 753 mmHg 91%
07:00 +15°C° 0.8 mm 0 mps 753 mmHg 93%
08:00 +16°C° 1 mm 1 mps 753 mmHg 92%
09:00 +16°C° 1 mm 2 mps 753 mmHg 92%
10:00 +17°C° 1 mm 2 mps 753 mmHg 91%
11:00 +17°C° 1.1 mm 3 mps 753 mmHg 87%
12:00 +18°C° 1.1 mm 3 mps 753 mmHg 83%
13:00 +19°C° 1.1 mm 4 mps 753 mmHg 78%
14:00 +19°C° 0.4 mm 4 mps 753 mmHg 73%
15:00 +20°C° 0.4 mm 4 mps 753 mmHg 67%
16:00 +20°C° 0.4 mm 4 mps 753 mmHg 62%
17:00 +20°C° 0.2 mm 4 mps 753 mmHg 65%
18:00 +19°C° 0.2 mm 4 mps 753 mmHg 69%
19:00 +18°C° 0.2 mm 3 mps 753 mmHg 72%
20:00 +17°C° 0 mm 3 mps 753 mmHg 77%
21:00 +16°C° 0 mm 3 mps 753 mmHg 81%
22:00 +14°C° 0 mm 4 mps 754 mmHg 86%
23:00 +13°C° 0 mm 3 mps 754 mmHg 88%

16 July, Thursday

Time Temperature Precipitation Wind Pressure Humidity
00:00 +13°C° 0 mm 3 mps 754 mmHg 89%
01:00 +12°C° 0 mm 3 mps 754 mmHg 91%
02:00 +12°C° 0 mm 3 mps 754 mmHg 92%
03:00 +11°C° 0 mm 3 mps 754 mmHg 93%
04:00 +11°C° 0 mm 3 mps 754 mmHg 94%
05:00 +12°C° 0 mm 3 mps 754 mmHg 90%
06:00 +13°C° 0 mm 4 mps 754 mmHg 86%
07:00 +14°C° 0 mm 4 mps 755 mmHg 82%
08:00 +15°C° 0 mm 4 mps 755 mmHg 77%
09:00 +16°C° 0 mm 5 mps 755 mmHg 71%
10:00 +17°C° 0 mm 5 mps 754 mmHg 65%
11:00 +19°C° 0 mm 5 mps 754 mmHg 62%
12:00 +20°C° 0 mm 6 mps 754 mmHg 59%
13:00 +20°C° 0 mm 6 mps 754 mmHg 57%
14:00 +21°C° 0.1 mm 6 mps 754 mmHg 55%
15:00 +21°C° 0.1 mm 6 mps 754 mmHg 54%
16:00 +22°C° 0.1 mm 6 mps 754 mmHg 53%
17:00 +21°C° 0 mm 5 mps 754 mmHg 59%
18:00 +20°C° 0 mm 5 mps 754 mmHg 65%
19:00 +19°C° 0 mm 4 mps 754 mmHg 72%
20:00 +18°C° 0 mm 4 mps 754 mmHg 76%
21:00 +17°C° 0 mm 4 mps 755 mmHg 80%
22:00 +15°C° 0 mm 4 mps 755 mmHg 85%
23:00 +14°C° 0 mm 3 mps 755 mmHg 88%

17 July, Friday

Time Temperature Precipitation Wind Pressure Humidity
00:00 +14°C° 0 mm 3 mps 755 mmHg 91%
01:00 +13°C° 0 mm 3 mps 756 mmHg 94%
02:00 +13°C° 0 mm 3 mps 756 mmHg 94%
03:00 +13°C° 0 mm 3 mps 756 mmHg 95%
04:00 +12°C° 0 mm 3 mps 756 mmHg 96%
05:00 +13°C° 0 mm 3 mps 756 mmHg 92%
06:00 +14°C° 0 mm 3 mps 756 mmHg 89%
07:00 +16°C° 0 mm 3 mps 756 mmHg 85%
08:00 +18°C° 0 mm 3 mps 757 mmHg 80%
09:00 +19°C° 0 mm 3 mps 757 mmHg 75%
10:00 +20°C° 0 mm 3 mps 757 mmHg 70%
11:00 +21°C° 0.3 mm 4 mps 757 mmHg 69%
12:00 +22°C° 0.3 mm 4 mps 757 mmHg 68%
13:00 +22°C° 0.3 mm 4 mps 757 mmHg 67%
14:00 +22°C° 0.7 mm 4 mps 757 mmHg 68%
15:00 +22°C° 0.7 mm 5 mps 757 mmHg 70%
16:00 +22°C° 0.7 mm 5 mps 757 mmHg 72%
17:00 +21°C° 0.2 mm 4 mps 757 mmHg 75%
18:00 +20°C° 0.2 mm 4 mps 757 mmHg 77%
19:00 +19°C° 0.2 mm 3 mps 757 mmHg 79%
20:00 +18°C° 0 mm 3 mps 758 mmHg 80%
21:00 +17°C° 0 mm 2 mps 758 mmHg 81%
22:00 +15°C° 0 mm 2 mps 758 mmHg 82%
23:00 +15°C° 0 mm 2 mps 758 mmHg 84%
Show more